Location: Newark
(39.9288°N, 0.1974°W)
Time: 15:37:40
(UTC+00:00)

Starlink Launch 2 leader - Visible Passes

Search period start: 15 December 2019 00:00
Search period end: 25 December 2019 00:00
Orbit: 279 x 281 km, 53.0° (Epoch: 13 November)

Date Brightness Start Highest point End Pass type
(mag) Time Alt. Az. Time Alt. Az. Time Alt. Az.
19 Dec 5.5 18:40:07 10° SSW 18:40:20 12° SSW 18:40:20 12° SSW visible
20 Dec 5.3 18:41:57 10° SW 18:42:39 17° WSW 18:42:39 17° WSW visible
21 Dec 4.6 17:11:40 10° SSE 17:12:57 13° SE 17:14:14 10° E visible
21 Dec 5.4 18:44:06 10° WSW 18:44:53 17° W 18:44:53 17° W visible
22 Dec 3.6 17:12:34 10° SSW 17:14:44 27° SE 17:16:54 10° ENE visible
22 Dec 5.6 18:46:34 10° WNW 18:47:02 13° WNW 18:47:02 13° WNW visible
23 Dec 2.3 17:14:09 10° SW 17:16:36 67° SE 17:18:59 11° NE visible
24 Dec 2.9 17:16:07 10° WSW 17:18:31 49° NW 17:20:56 10° NE visible
